STARLINK-36849, 68304

Orbit data source: Space-Track

STARLINK-36849, 68304 is a payload satellite owned by SpaceX/Seattle (US) in SSO that was launched on Fri, 20 Mar 2026 UTC via an FALCON 9 launch vehicle from the Air Force Western Test Range (AFWTR). Payload-class satellites include a variety of spacecraft equipped with specific instruments for various scientific and technological missions. These include communications satellites like Starlink; space stations such as the ISS; scientific satellites like the Hubble; Earth observation satellites from companies like Planet Labs, Umbra, and HawkEye 360; GPS; miniature CubeSats for education and research; and military/defense satellites.

Loading next visibility...
Identifier
68304, 2026-057L
Orbit
SSO
Country
Flag of USUS
Related business
Manufacturer
SpaceX/Seattle
Mission
Operational spacecraft
Bus & Motor
STARLINK V2MO, Unknown motor
Mass
575 kg wet, ~530 kg dry
Launch date (UTC)
2026-03-20 (3 months ago)
Launch vehicle
FALCON 9
Launch site
Air Force Western Test Range (AFWTR)
Object type
Payload
Rocket body
Debris
Shape & HBR
Unknown shape, 17.7 m
Radar Cross Section
Large (>1 m²)

Expand to show TLE details & history
Last TLE update: 12 hours ago

TLE from 12 hours ago
0 STARLINK-36849
1 68304U 26057L   26171.41668980 -.00025924  00000-0 -80325-3 0  9995
2 68304  97.2847 298.0651 0001260  77.3760  84.0554 15.33451563  5973
Epoch: 2026-06-20T10:00Z
TLE epoch observation values (Epoch: 2026-06-20T10:00:01.998Z)
Latitude
18.39311°
Longitude
61.84786°
Altitude
467.997 km
Speed
7.634 km/s
True Right ascension
08h 01m 57s
True Declination
18° 17' 10"
Sunlit
Object was in daylight at epoch
Visualization orbit readout
Latitude
Unknown
Longitude
Unknown
Altitude
Unknown
Speed
Unknown
Apparent Right ascension
Unknown
Apparent Declination
Unknown
Sunlit
N/A
Visualization observer readout
Local Sidereal Time
08:42:01
Azimuth
Unknown
Elevation
Unknown
Doppler factor
Unknown
Orbital elements
Apogee altitude
463.328 km
Perigee altitude
461.604 km
Semi-major axis
6,840.603 km
Eccentricity
0.00013
Inclination
97.2847°
RAAN
298.0651°
Arg. of periapsis
77.376°
True anomaly
84.06976°
Mean anomaly
84.0554°
Eccentric anomaly
84.06258°
Mean motion
3.8362 °/min
Orbital period
93.84 mins
BSTAR
-0.00080325
Loading maneuver chart data...
Computing Atmospheric mass density...
Loading historical data...
Loading historical data...
Loading historical data...
Loading historical data...
Loading historical data...
Loading historical data...
Loading historical data...

Documentation

Showing up to 5 results
|